Weather History for Memphis, TN

Change the Weather History Date:

Wednesday, August 6, 2014

  Actual Average Record
Temperature  
Mean Temperature 84 °F 83 °F  
Max Temperature 94 °F 92 °F 103 °F (1956)
Min Temperature 74 °F 74 °F 58 °F (1948)
Degree Days  
Heating Degree Days 0 0  
Month to date heating degree days 0 0  
Since 1 June heating degree days 0 0  
Since 1 July heating degree days 0 0  
Cooling Degree Days 19 18  
Month to date cooling degree days 102 108  
Year to date cooling degree days 1257 1416  
Since 1 June cooling degree days 946 1095  
Growing Degree Days 33 (Base 50)    
Moisture  
Dew Point 68 °F    
Average Humidity 60    
Maximum Humidity 79    
Minimum Humidity 41    
Precipitation  
Precipitation 0.00 in 0.11 in 2.56 in (1971)
Month to date precipitation T 0.70  
Year to date precipitation 41.92 33.20  
Snow  
Snow 0.00 in 0.00 in - ()
Month to date snowfall 0.0 0.0  
Since 1 June snowfall 0.0 0.0  
Since 1 July snowfall 0.0 0.0  
Snow Depth 0.00 in    
Sea Level Pressure  
Sea Level Pressure 30.01 in    
Wind  
Wind Speed 5 mph (WSW)    
Max Wind Speed 14 mph    
Max Gust Speed 18 mph    
Visibility 10 miles    
Events      
T = Trace of Precipitation, MM = Missing Value Source: NWS Daily Summary

Daily Weather History Graph

Daily Weather History Graph

Search for Another Location

Airport:

Trip Planner

Search our weather history database for the weather conditions in past years. The results will help you decide how hot, cold, wet, or windy it might be!

Date:

Astronomy

Aug. 06, 2014 Rise Set
Actual Time 6:13 AM CDT 7:58 PM CDT
Civil Twilight 5:45 AM CDT 8:25 PM CDT
Nautical Twilight 5:12 AM CDT 8:58 PM CDT
Astronomical Twilight 4:37 AM CDT 9:33 PM CDT
Moon 4:13 PM CDT (8/6) 1:49 AM CDT (8/6)
Length of Visible Light 14h 39m
Length of Day
13h 45m
Waxing Gibbous, 78% of the Moon is Illuminated
Aug 6
Waxing Gibbous
Aug 10
Full
Aug 17
Last Quarter
Aug 25
New
Sep 2
First Quarter

Hourly Weather History & Observations

Time (CDT) Temp. Heat Index Dew Point Humidity Pressure Visibility Wind Dir Wind Speed Gust Speed Precip Events Conditions
12:54 AM 79.0 °F - 66.0 °F 64% 30.01 in 10.0 mi SW 4.6 mph - N/A   Partly Cloudy
1:54 AM 77.0 °F - 66.0 °F 69% 30.01 in 10.0 mi SW 3.5 mph - N/A   Partly Cloudy
2:54 AM 75.0 °F - 66.9 °F 76% 30.00 in 10.0 mi Calm Calm - N/A   Partly Cloudy
3:54 AM 77.0 °F - 66.9 °F 71% 30.00 in 10.0 mi Calm Calm - N/A   Partly Cloudy
4:54 AM 73.9 °F - 66.0 °F 76% 30.01 in 10.0 mi SW 4.6 mph - N/A   Partly Cloudy
5:54 AM 73.9 °F - 64.9 °F 73% 30.02 in 10.0 mi Calm Calm - N/A   Partly Cloudy
6:54 AM 75.9 °F - 64.9 °F 69% 30.03 in 10.0 mi WSW 4.6 mph - N/A   Partly Cloudy
7:54 AM 79.0 °F - 66.9 °F 66% 30.04 in 10.0 mi WSW 4.6 mph - N/A   Partly Cloudy
8:54 AM 82.9 °F 86.5 °F 69.1 °F 63% 30.06 in 10.0 mi West 6.9 mph - N/A   Partly Cloudy
9:54 AM 84.9 °F 89.4 °F 70.0 °F 61% 30.05 in 10.0 mi West 9.2 mph - N/A   Partly Cloudy
10:54 AM 88.0 °F 92.1 °F 69.1 °F 53% 30.06 in 10.0 mi West 9.2 mph - N/A   Clear
11:54 AM 91.0 °F 96.6 °F 70.0 °F 50% 30.04 in 10.0 mi NW 6.9 mph - N/A   Clear
12:54 PM 93.0 °F 99.0 °F 70.0 °F 47% 30.03 in 10.0 mi NW 6.9 mph - N/A   Partly Cloudy
1:54 PM 93.0 °F 96.4 °F 66.9 °F 42% 30.01 in 10.0 mi Calm Calm - N/A   Partly Cloudy
2:54 PM 93.9 °F 99.1 °F 69.1 °F 44% 30.00 in 10.0 mi Variable 5.8 mph - N/A   Partly Cloudy
3:54 PM 93.9 °F 99.1 °F 69.1 °F 44% 29.98 in 10.0 mi SW 9.2 mph - N/A   Scattered Clouds
4:54 PM 93.0 °F 97.4 °F 68.0 °F 44% 29.97 in 10.0 mi West 6.9 mph - N/A   Scattered Clouds
5:54 PM 91.0 °F 95.2 °F 68.0 °F 47% 29.96 in 10.0 mi SW 6.9 mph - N/A   Scattered Clouds
6:54 PM 89.1 °F 92.1 °F 66.9 °F 48% 29.96 in 10.0 mi SW 5.8 mph - N/A   Scattered Clouds
7:54 PM 88.0 °F 90.7 °F 66.9 °F 49% 29.97 in 10.0 mi WSW 3.5 mph - N/A   Scattered Clouds
8:54 PM 84.9 °F 88.2 °F 68.0 °F 57% 29.98 in 10.0 mi SW 4.6 mph - N/A   Scattered Clouds
9:54 PM 82.9 °F 86.5 °F 69.1 °F 63% 30.00 in 10.0 mi NE 12.7 mph - N/A   Partly Cloudy
10:54 PM 82.0 °F 85.9 °F 70.0 °F 67% 30.00 in 10.0 mi East 8.1 mph - N/A   Clear
11:54 PM 80.1 °F 82.7 °F 68.0 °F 67% 29.99 in 10.0 mi ESE 6.9 mph - N/A   Clear